Location: Unspecified
(41.5000°N, 0.0000°E)
Time: 19:08:39
(UTC+00:00)

Vanguard 2 - Pass Details

Date: 19 June 2019
Orbit: 553 x 2938 km, 32.9° (Epoch: 15 July)

Event Time Altitude Azimuth Distance (km) Brightness Sun altitude
Rises 07:00:30 0° 189° (S) 3,085 10.5 26.0°
Reaches altitude 10° 07:04:51 10° 151° (SSE) 2,549 10.5 26.8°
Maximum altitude 07:06:18 11° 137° (SE) 2,629 10.9 27.1°
Drops below altitude 10° 07:07:54 10° 123° (ESE) 2,855 11.3 27.4°
Sets 07:14:09 0° 91° (E) 4,492 12.7 28.6°
